Weather History for Covington, KY

Change the Weather History Date:

Saturday, January 12, 2013

  Actual Average Record
Temperature  
Mean Temperature 59 °F 31 °F  
Max Temperature 65 °F 38 °F 71 °F (1890)
Min Temperature 52 °F 23 °F -16 °F (1918)
Degree Days  
Heating Degree Days 6 34  
Month to date heating degree days 342 408  
Since 1 July heating degree days 2208 2327  
Cooling Degree Days 0 0  
Month to date cooling degree days 0 0  
Year to date cooling degree days 0 0  
Growing Degree Days 6 (Base 50)    
Moisture  
Dew Point 58 °F    
Average Humidity 89    
Maximum Humidity 100    
Minimum Humidity 78    
Precipitation  
Precipitation 0.04 in 0.10 in 0.95 in (1911)
Month to date precipitation 0.86 1.19  
Year to date precipitation 0.86 1.19  
Snow  
Snow 0.00 in 0.10 in 5.20 in (1964)
Month to date snowfall 0.2 2.2  
Since 1 July snowfall 7.8 7.8  
Snow Depth 0.00 in    
Sea Level Pressure  
Sea Level Pressure 29.94 in    
Wind  
Wind Speed 9 mph (South)    
Max Wind Speed 22 mph    
Max Gust Speed 29 mph    
Visibility 9 miles    
Events Rain    
T = Trace of Precipitation, MM = Missing Value Source: NWS Daily Summary

Daily Weather History Graph

Daily Weather History Graph

Search for Another Location

Airport:

Trip Planner

Search our weather history database for the weather conditions in past years. The results will help you decide how hot, cold, wet, or windy it might be!

Date:

Astronomy

Jan. 12, 2013 Rise Set
Actual Time 7:57 AM EST 5:37 PM EST
Civil Twilight 7:27 AM EST 6:07 PM EST
Nautical Twilight 6:54 AM EST 6:40 PM EST
Astronomical Twilight 6:22 AM EST 7:12 PM EST
Moon 8:16 AM EST 7:04 PM EST
Length of Visible Light 10h 39m
Length of Day
9h 40m
New Moon, 1% of the Moon is Illuminated
Jan 12
New Moon
Jan 18
First Quarter
Jan 26
Full
Feb 3
Last Quarter
Feb 10
New

Hourly Weather History & Observations

Time (EST) Temp. Dew Point Humidity Pressure Visibility Wind Dir Wind Speed Gust Speed Precip Events Conditions
12:52 AM 54.0 °F 50.0 °F 86% 29.95 in 10.0 mi SSW 6.9 mph - N/A   Mostly Cloudy
1:52 AM 53.1 °F 51.1 °F 93% 29.95 in 10.0 mi South 6.9 mph - N/A   Mostly Cloudy
2:52 AM 54.0 °F 52.0 °F 93% 29.96 in 10.0 mi SSW 6.9 mph - N/A   Mostly Cloudy
3:43 AM 55.4 °F 53.6 °F 94% 29.97 in 10.0 mi SSW 5.8 mph - N/A   Overcast
3:52 AM 55.9 °F 54.0 °F 93% 29.96 in 10.0 mi SSW 6.9 mph - N/A   Overcast
4:52 AM 57.9 °F 55.9 °F 93% 29.96 in 10.0 mi SSW 8.1 mph - N/A   Overcast
5:52 AM 57.9 °F 55.9 °F 93% 29.96 in 10.0 mi SSW 10.4 mph - N/A   Overcast
5:59 AM 57.2 °F 55.4 °F 94% 29.97 in 10.0 mi SW 10.4 mph 18.4 mph N/A   Overcast
6:35 AM 57.2 °F 55.4 °F 94% 29.98 in 10.0 mi SW 8.1 mph - N/A   Overcast
6:52 AM 57.9 °F 55.9 °F 93% 29.99 in 10.0 mi SW 8.1 mph - N/A   Overcast
7:52 AM 57.9 °F 55.9 °F 93% 30.01 in 9.0 mi SSW 8.1 mph - N/A   Overcast
8:08 AM 57.2 °F 55.4 °F 94% 30.01 in 8.0 mi SSW 5.8 mph - N/A   Scattered Clouds
8:52 AM 57.9 °F 57.0 °F 97% 30.02 in 7.0 mi South 4.6 mph - N/A   Scattered Clouds
9:52 AM 59.0 °F 57.0 °F 93% 30.02 in 7.0 mi South 6.9 mph - N/A   Mostly Cloudy
10:52 AM 61.0 °F 59.0 °F 93% 30.01 in 9.0 mi South 4.6 mph - N/A   Mostly Cloudy
11:52 AM 62.6 °F 60.8 °F 94% 30.02 in 10.0 mi SSW 5.8 mph - N/A   Overcast
1:52 PM 64.9 °F 57.9 °F 78% 29.97 in 10.0 mi SW 5.8 mph - N/A   Overcast
2:52 PM 63.0 °F 59.0 °F 87% 29.97 in 10.0 mi South 3.5 mph - N/A   Overcast
3:24 PM 64.4 °F 60.8 °F 88% 29.96 in 9.0 mi ESE 4.6 mph - N/A   Overcast
3:52 PM 64.0 °F 60.1 °F 87% 29.95 in 8.0 mi Calm Calm - N/A   Overcast
4:17 PM 64.4 °F 60.8 °F 88% 29.95 in 8.0 mi ESE 4.6 mph - N/A   Overcast
4:52 PM 63.0 °F 60.1 °F 90% 29.92 in 8.0 mi East 5.8 mph - N/A   Overcast
5:01 PM 62.6 °F 60.8 °F 94% 29.94 in 8.0 mi East 5.8 mph - N/A   Overcast
5:38 PM 62.6 °F 60.8 °F 94% 29.92 in 5.0 mi East 5.8 mph - 0.00 in Rain Light Rain
5:52 PM 61.0 °F 60.1 °F 97% 29.91 in 7.0 mi East 5.8 mph - 0.00 in   Overcast
6:52 PM 63.0 °F 62.1 °F 97% 29.88 in 6.0 mi SSE 11.5 mph - 0.00 in   Overcast
7:52 PM 63.0 °F 61.0 °F 93% 29.86 in 10.0 mi SSE 13.8 mph - N/A   Overcast
8:52 PM 64.0 °F 61.0 °F 90% 29.85 in 10.0 mi South 12.7 mph 23.0 mph N/A   Overcast
9:52 PM 64.9 °F 62.1 °F 90% 29.83 in 8.0 mi South 19.6 mph 27.6 mph 0.01 in Rain Light Rain
10:52 PM 64.9 °F 61.0 °F 87% 29.81 in 10.0 mi South 16.1 mph 26.5 mph 0.03 in   Overcast
11:22 PM 64.4 °F 60.8 °F 88% 29.83 in 10.0 mi South 13.8 mph 26.5 mph N/A   Overcast
11:52 PM 64.9 °F 61.0 °F 87% 29.80 in 10.0 mi South 16.1 mph 24.2 mph N/A   Overcast